Change the Weather History Date:

Sunday, July 14, 2013

  Actual Average Record
Temperature  
Mean Temperature 78 °F -  
Max Temperature 86 °F 81 °F 90 °F (1973)
Min Temperature 71 °F 62 °F 54 °F (1962)
Cooling Degree Days 14    
Growing Degree Days 28 (Base 50)    
Moisture  
Dew Point 74 °F    
Average Humidity 95    
Maximum Humidity 100    
Minimum Humidity 72    
Precipitation  
Precipitation 0.13 in - - ()
Sea Level Pressure  
Sea Level Pressure 30.27 in    
Wind  
Wind Speed 4 mph (WSW)    
Max Wind Speed 13 mph    
Max Gust Speed -    
Visibility 4 miles    
Events Fog , Rain    
Averages and records for this station are not official NWS values.
T = Trace of Precipitation, MM = Missing Value Source: NWS Daily Summary

Daily Weather History Graph

Daily Weather History Graph

Search for Another Location

Airport or City:

Trip Planner

Search our weather history database for the weather conditions in past years. The results will help you decide how hot, cold, wet, or windy it might be!

Date:

Astronomy

Jul. 14, 2013 Rise Set
Actual Time 5:27 AM EDT 8:20 PM EDT
Civil Twilight 4:54 AM EDT 8:53 PM EDT
Nautical Twilight 4:12 AM EDT 9:34 PM EDT
Astronomical Twilight 3:24 AM EDT 10:22 PM EDT
Moon 11:45 AM EDT (7/14) 11:26 PM EDT (7/14)
Length of Visible Light 15h 58m
Length of Day
14h 53m
Waxing Crescent, 35% of the Moon is Illuminated
Jul 14
Waxing Crescent
Jul 15
First Quarter
Jul 22
Full
Jul 29
Last Quarter
Aug 6
New

Hourly Weather History & Observations

Time (EDT) Temp. Heat Index Dew Point Humidity Pressure Visibility Wind Dir Wind Speed Gust Speed Precip Events Conditions
12:15 AM 71.6 °F - 71.6 °F 100% 30.30 in 2.0 mi East 4.6 mph - N/A   Overcast
12:37 AM 71.6 °F - 71.6 °F 100% 30.30 in 1.2 mi East 3.5 mph - N/A   Overcast
12:53 AM 71.6 °F - 71.6 °F 100% 30.30 in 0.5 mi SE 3.5 mph - N/A Fog Fog
12:56 AM 71.1 °F - 71.1 °F 100% 30.30 in 0.5 mi ESE 4.6 mph - N/A Fog Fog
1:22 AM 71.6 °F - 71.6 °F 100% 30.30 in 1.2 mi Calm Calm - N/A   Overcast
1:32 AM 71.6 °F - 71.6 °F 100% 30.29 in 3.0 mi ENE 4.6 mph - N/A   Overcast
1:56 AM 72.0 °F - 72.0 °F 100% 30.30 in 5.0 mi Calm Calm - 0.00 in Rain Light Rain
2:08 AM 71.6 °F - 71.6 °F 100% 30.29 in 1.8 mi Calm Calm - 0.00 in Rain Light Rain
2:37 AM 71.6 °F - 71.6 °F 100% 30.29 in 0.5 mi Calm Calm - 0.00 in Fog Fog
2:45 AM 71.6 °F - 71.6 °F 100% 30.29 in 0.2 mi Calm Calm - 0.00 in Fog Fog
2:56 AM 72.0 °F - 72.0 °F 100% 30.29 in 0.2 mi Calm Calm - 0.00 in Fog Fog
3:31 AM 71.6 °F - 71.6 °F 100% 30.29 in 0.2 mi Calm Calm - N/A Fog Fog
3:50 AM 71.6 °F - 71.6 °F 100% 30.28 in 0.5 mi Calm Calm - N/A Fog Fog
3:51 AM 72.0 °F - 72.0 °F 100% 30.28 in 0.5 mi Calm Calm - N/A Fog Fog
4:09 AM 71.6 °F - 71.6 °F 100% 30.28 in 1.2 mi Calm Calm - N/A   Overcast
4:20 AM 71.6 °F - 71.6 °F 100% 30.28 in 3.0 mi SW 3.5 mph - N/A   Overcast
4:40 AM 71.6 °F - 71.6 °F 100% 30.28 in 1.8 mi WSW 6.9 mph - N/A   Overcast
4:56 AM 72.0 °F - 72.0 °F 100% 30.27 in 1.8 mi WSW 6.9 mph - N/A   Overcast
5:07 AM 71.6 °F - 71.6 °F 100% 30.27 in 1.0 mi WSW 5.8 mph - N/A   Overcast
5:26 AM 73.4 °F - 73.4 °F 100% 30.28 in 3.0 mi West 4.6 mph - N/A   Overcast
5:33 AM 73.4 °F - 73.4 °F 100% 30.28 in 2.5 mi West 3.5 mph - N/A   Overcast
5:46 AM 73.4 °F - - N/A% 30.28 in 1.8 mi West 4.6 mph - N/A   Overcast
5:56 AM 73.0 °F - - N/A% 30.29 in 0.8 mi WNW 4.6 mph - N/A   Overcast
6:11 AM 73.4 °F - 73.4 °F 100% 30.29 in 0.2 mi WNW 6.9 mph - N/A Fog Fog
6:21 AM 73.4 °F - 73.4 °F 100% 30.29 in 0.5 mi WNW 6.9 mph - N/A Fog Fog
6:38 AM 73.4 °F - - N/A% 30.29 in 2.0 mi NNW 5.8 mph - N/A   Overcast
6:56 AM 73.9 °F - 73.9 °F 100% 30.30 in 2.0 mi NW 6.9 mph - N/A   Overcast
7:44 AM 75.2 °F - 75.2 °F 100% 30.31 in 5.0 mi NNW 4.6 mph - N/A   Overcast
7:56 AM 75.9 °F - 75.9 °F 100% 30.31 in 5.0 mi NNW 4.6 mph - N/A   Overcast
8:56 AM 78.1 °F - 75.9 °F 93% 30.31 in 7.0 mi NNW 5.8 mph - N/A   Overcast
9:56 AM 80.1 °F 85.4 °F 75.9 °F 87% 30.30 in 7.0 mi WSW 4.6 mph - N/A   Overcast
10:03 AM 78.8 °F - 77.0 °F 94% 30.30 in 9.0 mi South 6.9 mph - N/A   Mostly Cloudy
10:56 AM 75.9 °F - 75.9 °F 100% 30.31 in 7.0 mi SSW 8.1 mph - N/A   Mostly Cloudy
11:56 AM 78.1 °F - 75.9 °F 93% 30.30 in 7.0 mi SW 9.2 mph - N/A   Overcast
12:56 PM 80.1 °F 86.4 °F 78.1 °F 94% 30.28 in 6.0 mi SW 9.2 mph - N/A   Mostly Cloudy
1:56 PM 82.0 °F 91.0 °F 78.1 °F 88% 30.27 in 8.0 mi WSW 11.5 mph - N/A   Mostly Cloudy
2:03 PM 82.4 °F 92.4 °F 78.8 °F 89% 30.26 in 8.0 mi SW 10.4 mph - N/A   Clear
2:10 PM 82.4 °F 92.4 °F 78.8 °F 89% 30.26 in 8.0 mi SW 10.4 mph - N/A   Mostly Cloudy
2:56 PM 84.0 °F 93.7 °F 77.0 °F 79% 30.25 in 9.0 mi SW 10.4 mph - N/A   Mostly Cloudy
3:03 PM 84.2 °F 94.1 °F 77.0 °F 79% 30.25 in 9.0 mi WSW 12.7 mph - N/A   Clear
3:56 PM 82.9 °F 91.8 °F 77.0 °F 82% 30.24 in 9.0 mi SW 10.4 mph - N/A   Clear
4:56 PM 86.0 °F 96.0 °F 75.9 °F 72% 30.23 in 9.0 mi West 11.5 mph - N/A   Partly Cloudy
5:56 PM 84.9 °F 94.1 °F 75.9 °F 74% 30.22 in 9.0 mi WSW 6.9 mph - N/A   Partly Cloudy
6:56 PM 82.0 °F 89.4 °F 75.9 °F 82% 30.23 in 8.0 mi Calm Calm - N/A   Mostly Cloudy
7:20 PM 78.8 °F - 75.2 °F 89% 30.24 in 2.0 mi NNE 8.1 mph - 0.11 in Rain Rain
7:27 PM 78.8 °F - 78.8 °F 100% 30.23 in 7.0 mi Variable 5.8 mph - 0.13 in Rain Light Rain
7:56 PM 78.1 °F - 78.1 °F 100% 30.22 in 8.0 mi Calm Calm - 0.13 in   Mostly Cloudy
8:56 PM 77.0 °F - 75.9 °F 96% 30.22 in 9.0 mi WSW 5.8 mph - N/A   Clear
9:56 PM 77.0 °F - 75.0 °F 94% 30.23 in 9.0 mi WSW 5.8 mph - 0.00 in   Clear
10:56 PM 77.0 °F - 75.0 °F 94% 30.22 in 8.0 mi West 5.8 mph - N/A   Clear
11:56 PM 75.9 °F - 75.0 °F 97% 30.22 in 8.0 mi West 4.6 mph - N/A   Clear